Meteo pe oră la Daejeon

Astăzi, 23 Aprilie, Vineri

Timp Temperatura Precipitaţii Vânt Presiune Umiditate
00:00 +17°C° 0 mm 2 m/s 751 mmHg 40%
01:00 +17°C° 0 mm 2 m/s 751 mmHg 39%
02:00 +16°C° 0 mm 2 m/s 752 mmHg 40%
03:00 +16°C° 0 mm 2 m/s 752 mmHg 40%
04:00 +16°C° 0 mm 3 m/s 752 mmHg 40%
05:00 +16°C° 0 mm 3 m/s 752 mmHg 41%
06:00 +15°C° 0 mm 4 m/s 752 mmHg 41%
07:00 +15°C° 0 mm 5 m/s 752 mmHg 41%
08:00 +16°C° 0 mm 7 m/s 752 mmHg 41%
09:00 +17°C° 0 mm 7 m/s 752 mmHg 39%
10:00 +20°C° 0 mm 7 m/s 752 mmHg 37%
11:00 +21°C° 0 mm 7 m/s 751 mmHg 35%
12:00 +22°C° 0 mm 6 m/s 751 mmHg 33%
13:00 +23°C° 0 mm 6 m/s 751 mmHg 31%
14:00 +24°C° 0 mm 6 m/s 751 mmHg 29%
15:00 +23°C° 0 mm 6 m/s 751 mmHg 32%
16:00 +21°C° 0 mm 6 m/s 751 mmHg 34%
17:00 +20°C° 0 mm 6 m/s 751 mmHg 37%
18:00 +17°C° 0 mm 6 m/s 752 mmHg 40%
19:00 +16°C° 0 mm 6 m/s 752 mmHg 44%
20:00 +14°C° 0 mm 7 m/s 753 mmHg 47%
21:00 +14°C° 0 mm 6 m/s 753 mmHg 51%
22:00 +13°C° 0 mm 5 m/s 753 mmHg 54%
23:00 +13°C° 0 mm 5 m/s 754 mmHg 58%

Mâine, 24 Aprilie, Sâmbătă

Timp Temperatura Precipitaţii Vânt Presiune Umiditate
00:00 +12°C° 0 mm 4 m/s 753 mmHg 61%
01:00 +12°C° 0 mm 4 m/s 753 mmHg 65%
02:00 +12°C° 0 mm 4 m/s 753 mmHg 68%
03:00 +11°C° 0 mm 3 m/s 753 mmHg 70%
04:00 +11°C° 0 mm 3 m/s 753 mmHg 72%
05:00 +10°C° 0 mm 2 m/s 753 mmHg 74%
06:00 +13°C° 0 mm 2 m/s 754 mmHg 65%
07:00 +15°C° 0 mm 2 m/s 754 mmHg 56%
08:00 +17°C° 0 mm 2 m/s 754 mmHg 47%
09:00 +19°C° 0 mm 2 m/s 754 mmHg 41%
10:00 +21°C° 0 mm 2 m/s 753 mmHg 36%
11:00 +24°C° 0 mm 2 m/s 753 mmHg 30%
12:00 +24°C° 0 mm 2 m/s 753 mmHg 29%
13:00 +25°C° 0 mm 2 m/s 752 mmHg 27%
14:00 +26°C° 0 mm 2 m/s 752 mmHg 26%
15:00 +24°C° 0 mm 2 m/s 752 mmHg 30%
16:00 +22°C° 0 mm 3 m/s 752 mmHg 33%
17:00 +21°C° 0 mm 3 m/s 752 mmHg 37%
18:00 +19°C° 0 mm 2 m/s 752 mmHg 43%
19:00 +18°C° 0 mm 1 m/s 752 mmHg 49%
20:00 +15°C° 0 mm 1 m/s 753 mmHg 55%
21:00 +14°C° 0 mm 0 m/s 753 mmHg 58%
22:00 +14°C° 0 mm 0 m/s 753 mmHg 60%
23:00 +13°C° 0 mm 0 m/s 753 mmHg 62%

Poimâine, 25 Aprilie, Duminică

Timp Temperatura Precipitaţii Vânt Presiune Umiditate
00:00 +13°C° 0 mm 0 m/s 753 mmHg 64%
01:00 +12°C° 0 mm 0 m/s 752 mmHg 66%
02:00 +12°C° 0 mm 0 m/s 752 mmHg 67%
03:00 +12°C° 0 mm 0 m/s 752 mmHg 69%
04:00 +11°C° 0 mm 0 m/s 752 mmHg 71%
05:00 +11°C° 0 mm 0 m/s 752 mmHg 73%
06:00 +14°C° 0 mm 1 m/s 752 mmHg 65%
07:00 +16°C° 0 mm 3 m/s 753 mmHg 58%
08:00 +18°C° 0 mm 4 m/s 753 mmHg 51%
09:00 +19°C° 0 mm 4 m/s 753 mmHg 47%
10:00 +21°C° 0 mm 4 m/s 753 mmHg 42%
11:00 +22°C° 0 mm 4 m/s 753 mmHg 38%
12:00 +24°C° 0 mm 3 m/s 752 mmHg 36%
13:00 +24°C° 0 mm 3 m/s 752 mmHg 34%
14:00 +25°C° 0 mm 3 m/s 751 mmHg 32%
15:00 +24°C° 0 mm 3 m/s 751 mmHg 37%
16:00 +22°C° 0 mm 3 m/s 752 mmHg 41%
17:00 +21°C° 0 mm 3 m/s 752 mmHg 45%
18:00 +19°C° 0 mm 3 m/s 752 mmHg 49%
19:00 +18°C° 0 mm 3 m/s 753 mmHg 53%
20:00 +16°C° 0 mm 3 m/s 753 mmHg 57%
21:00 +15°C° 0 mm 2 m/s 754 mmHg 59%
22:00 +14°C° 0 mm 2 m/s 754 mmHg 60%
23:00 +13°C° 0 mm 1 m/s 754 mmHg 62%

26 Aprilie, Luni

Timp Temperatura Precipitaţii Vânt Presiune Umiditate
00:00 +13°C° 0 mm 1 m/s 754 mmHg 63%
01:00 +12°C° 0 mm 1 m/s 754 mmHg 64%
02:00 +12°C° 0 mm 1 m/s 754 mmHg 65%
03:00 +11°C° 0 mm 1 m/s 754 mmHg 66%
04:00 +11°C° 0 mm 1 m/s 755 mmHg 67%
05:00 +11°C° 0 mm 1 m/s 755 mmHg 68%
06:00 +13°C° 0 mm 1 m/s 755 mmHg 61%
07:00 +14°C° 0 mm 2 m/s 755 mmHg 53%
08:00 +16°C° 0 mm 2 m/s 755 mmHg 46%
09:00 +18°C° 0 mm 2 m/s 754 mmHg 41%
10:00 +20°C° 0 mm 2 m/s 754 mmHg 36%
11:00 +23°C° 0 mm 2 m/s 754 mmHg 32%
12:00 +24°C° 0 mm 2 m/s 753 mmHg 30%
13:00 +24°C° 0 mm 2 m/s 753 mmHg 29%
14:00 +25°C° 0 mm 1 m/s 752 mmHg 28%
15:00 +23°C° 0 mm 2 m/s 752 mmHg 37%
16:00 +21°C° 0 mm 2 m/s 753 mmHg 46%
17:00 +19°C° 0 mm 3 m/s 753 mmHg 54%
18:00 +18°C° 0 mm 2 m/s 753 mmHg 60%
19:00 +17°C° 0 mm 2 m/s 753 mmHg 66%
20:00 +15°C° 0 mm 1 m/s 754 mmHg 71%
21:00 +15°C° 0 mm 1 m/s 754 mmHg 75%
22:00 +13°C° 0 mm 0 m/s 754 mmHg 79%
23:00 +12°C° 0 mm 0 m/s 754 mmHg 82%

27 Aprilie, Marţi

Timp Temperatura Precipitaţii Vânt Presiune Umiditate
00:00 +12°C° 0 mm 0 m/s 754 mmHg 82%
01:00 +12°C° 0 mm 0 m/s 753 mmHg 82%
02:00 +12°C° 0 mm 0 m/s 753 mmHg 82%
03:00 +12°C° 0 mm 0 m/s 753 mmHg 83%
04:00 +11°C° 0 mm 0 m/s 753 mmHg 83%
05:00 +11°C° 0 mm 0 m/s 753 mmHg 84%
06:00 +13°C° 0 mm 0 m/s 753 mmHg 78%
07:00 +14°C° 0 mm 0 m/s 753 mmHg 71%
08:00 +18°C° 0 mm 1 m/s 753 mmHg 65%
09:00 +20°C° 0 mm 1 m/s 752 mmHg 53%
10:00 +20°C° 0 mm 2 m/s 752 mmHg 41%
11:00 +22°C° 0 mm 3 m/s 751 mmHg 29%
12:00 +22°C° 0 mm 3 m/s 751 mmHg 31%
13:00 +21°C° 0 mm 4 m/s 751 mmHg 34%
14:00 +20°C° 0 mm 4 m/s 751 mmHg 36%
15:00 +19°C° 0 mm 4 m/s 751 mmHg 41%
16:00 +19°C° 0 mm 3 m/s 751 mmHg 46%
17:00 +18°C° 0 mm 3 m/s 751 mmHg 50%
18:00 +16°C° 0 mm 2 m/s 751 mmHg 61%
19:00 +15°C° 0 mm 2 m/s 751 mmHg 71%
20:00 +13°C° 0 mm 1 m/s 751 mmHg 82%
21:00 +14°C° 0 mm 1 m/s 751 mmHg 82%
22:00 +14°C° 0 mm 1 m/s 751 mmHg 82%
23:00 +14°C° 0 mm 1 m/s 751 mmHg 82%

28 Aprilie, Miercuri

Timp Temperatura Precipitaţii Vânt Presiune Umiditate
00:00 +14°C° 0 mm 1 m/s 751 mmHg 82%
01:00 +15°C° 0 mm 2 m/s 751 mmHg 82%
02:00 +15°C° 0 mm 2 m/s 751 mmHg 82%
03:00 +15°C° 0 mm 2 m/s 750 mmHg 82%
04:00 +15°C° 0 mm 2 m/s 750 mmHg 82%
05:00 +15°C° 0 mm 2 m/s 750 mmHg 82%
06:00 +16°C° 0 mm 3 m/s 750 mmHg 79%
07:00 +16°C° 0 mm 3 m/s 750 mmHg 76%
08:00 +17°C° 0 mm 4 m/s 750 mmHg 72%
09:00 +19°C° 0 mm 4 m/s 750 mmHg 66%
10:00 +20°C° 0 mm 5 m/s 749 mmHg 59%
11:00 +22°C° 0 mm 5 m/s 749 mmHg 53%
12:00 +22°C° 0 mm 5 m/s 749 mmHg 51%
13:00 +22°C° 0 mm 5 m/s 748 mmHg 49%
14:00 +22°C° 0 mm 5 m/s 748 mmHg 48%
15:00 +21°C° 0 mm 5 m/s 748 mmHg 55%
16:00 +20°C° 0 mm 4 m/s 748 mmHg 62%
17:00 +19°C° 0 mm 4 m/s 748 mmHg 70%
18:00 +17°C° 0.1 mm 3 m/s 748 mmHg 78%
19:00 +15°C° 0.1 mm 2 m/s 748 mmHg 86%
20:00 +14°C° 0.1 mm 1 m/s 749 mmHg 94%
21:00 +14°C° 0 mm 1 m/s 749 mmHg 95%
22:00 +13°C° 0 mm 1 m/s 749 mmHg 96%
23:00 +13°C° 0 mm 1 m/s 749 mmHg 97%
Arată mai mult

Formular de consimțământ

Meteoprog și furnizorii noștri de servicii pot stoca și accesa date personale, precum cookies, identificatori de dispozitiv sau alte tehnologii similare pe dispozitivul dumneavoastră și procesa astfel de date pentru a personaliza conținutul și reclamele, dar și pentru a oferi caracteristici de social media și pentru a analiza traficul.

  • Stocarea și/sau accesarea informațiilor pe dispozitivul dumneavoastră

    Cookies, identificatori de dispozitiv sau alte informații pot fi stocate sau accesate pe dispozitiv în scopurile indicate mai sus.

  • Reclame și conținut personalizat, evaluarea reclamelor și a conținutului, informații despre audiențe și dezvoltarea produselor

    Reclamele și conținutul pot fi personalizate pe baza unui profil. Pot fi adăugate date suplimentare pentru a personaliza mai bine reclamele și conținutul. Performanța reclamelor și conținutului poate fi măsurată. Pot fi obținute informații despre utilizatorii care au văzut reclamele și conținutul. Aceste date pot fi utilizate pentru a dezvolta sau îmbunătăți experiența utilizatorilor, sistemele și software-ul.

Dând clic pe ‘Sunt de acord’, permiteți utilizarea cookie-urilor menționate, a identificatorilor de dispozitiv, balizelor web sau altor tehnologii similare. Setările pot fi modificate din browser-ul dispozitivului dumneavoastră.

În anumite scopuri, interesele legitime pot prima asupra consimțământului. Puteți citi mai multe informații în acest sens în Politica privind Confidențialitatea Datelor și Cookie.